Location: Lane
(33.5226°N, 79.8788°W)
Time: 18:48:13
(UTC+00:00)

Courier 1B Rocket - Pass Details

Date: 11 October 2022
Orbit: 920 x 1202 km, 28.3° (Epoch: 01 December)

Event Time Altitude Azimuth Distance (km) Brightness Sun altitude
Rises 01:03:42 0° 270° (W) 3,860 9.3 -28.2°
Reaches altitude 10° 01:06:42 10° 263° (W) 2,857 8.3 -28.8°
Maximum altitude 01:13:01 38° 197° (SSW) 1,464 5.9 -30.1°
Enters shadow 01:13:22 38° 190° (S) 1,466 5.8 -30.1°
Drops below altitude 10° 01:18:57 10° 131° (SE) 2,679 - -31.3°
Sets 01:21:41 0° 123° (ESE) 3,594 - -31.8°
